Time,TemperatureF,DewpointF,PressureIn,WindDirection,WindDirectionDegrees,WindSpeedMPH,WindSpeedGustMPH,Humidity,HourlyPrecipIn,Conditions,Clouds,dailyrainin,SoftwareType,DateUTC
2013-11-23 00:02:00,37.2,34.3,30.36,North,5,19.6,19.6,89,0.00,RA,,0.00,WeatherDisplay:10.37,2013-11-23 06:02:00,
2013-11-23 00:07:00,37.2,34.3,30.36,NW,323,11.5,11.5,89,0.00,RA,,0.00,WeatherDisplay:10.37,2013-11-23 06:07:00,
2013-11-23 00:12:00,37.2,34.3,30.36,NNE,30,13.8,13.8,89,0.00,CLR,,0.00,WeatherDisplay:10.37,2013-11-23 06:12:00,
2013-11-23 00:17:00,37.1,34.2,30.36,North,10,16.1,16.1,89,0.00,CLR,,0.00,WeatherDisplay:10.37,2013-11-23 06:17:00,
2013-11-23 00:22:00,37.2,34.5,30.36,NNW,335,18.4,18.4,90,0.00,CLR,,0.00,WeatherDisplay:10.37,2013-11-23 06:22:00,
2013-11-23 00:27:00,37.2,34.3,30.36,NW,308,18.4,18.4,89,0.00,CLR,,0.00,WeatherDisplay:10.37,2013-11-23 06:27:00,
2013-11-23 00:32:00,37.3,34.4,30.36,NW,313,12.7,12.7,89,0.00,CLR,,0.00,WeatherDisplay:10.37,2013-11-23 06:32:00,
2013-11-23 00:37:00,37.4,34.5,30.36,North,8,19.6,19.6,89,0.00,CLR,,0.00,WeatherDisplay:10.37,2013-11-23 06:37:00,
2013-11-23 00:42:00,37.4,34.5,30.36,NNE,27,12.7,12.7,89,0.00,CLR,,0.00,WeatherDisplay:10.37,2013-11-23 06:42:00,
2013-11-23 00:47:00,37.4,34.5,30.36,NE,41,16.1,16.1,89,0.00,CLR,,0.00,WeatherDisplay:10.37,2013-11-23 06:47:00,
2013-11-23 00:52:00,37.5,34.6,30.36,NNW,330,10.4,10.4,89,0.00,CLR,,0.00,WeatherDisplay:10.37,2013-11-23 06:52:00,
2013-11-23 00:57:00,37.5,34.6,30.36,NNE,20,11.5,11.5,89,0.00,CLR,,0.00,WeatherDisplay:10.37,2013-11-23 06:57:00,
2013-11-23 01:02:00,37.6,34.7,30.36,North,6,12.7,12.7,89,0.00,CLR,,0.00,WeatherDisplay:10.37,2013-11-23 07:02:00,
2013-11-23 01:07:00,37.6,34.7,30.36,NNE,30,13.8,13.8,89,0.00,CLR,,0.00,WeatherDisplay:10.37,2013-11-23 07:07:00,
2013-11-23 01:12:00,37.6,34.7,30.36,North,11,13.8,13.8,89,0.00,CLR,,0.00,WeatherDisplay:10.37,2013-11-23 07:12:00,
2013-11-23 01:17:00,37.7,34.8,30.36,NE,37,11.5,11.5,89,0.00,CLR,,0.00,WeatherDisplay:10.37,2013-11-23 07:17:00,
2013-11-23 01:22:00,37.7,34.8,30.36,NNW,338,8.1,8.1,89,0.00,CLR,,0.00,WeatherDisplay:10.37,2013-11-23 07:22:00,
2013-11-23 01:27:00,37.7,35.0,30.36,North,1,8.1,8.1,90,0.00,CLR,,0.00,WeatherDisplay:10.37,2013-11-23 07:27:00,
2013-11-23 01:32:00,37.7,35.0,30.36,NNW,336,9.0,9.0,90,0.00,CLR,,0.00,WeatherDisplay:10.37,2013-11-23 07:32:00,
2013-11-23 01:37:00,37.6,34.9,30.36,NNW,333,13.8,13.8,90,0.00,CLR,,0.00,WeatherDisplay:10.37,2013-11-23 07:37:00,
2013-11-23 01:42:00,37.6,34.9,30.37,NW,317,13.8,13.8,90,0.00,CLR,,0.00,WeatherDisplay:10.37,2013-11-23 07:42:00,
2013-11-23 01:47:00,37.6,34.9,30.37,NNW,335,10.4,10.4,90,0.00,CLR,,0.00,WeatherDisplay:10.37,2013-11-23 07:47:00,
2013-11-23 01:52:00,37.6,34.9,30.37,NE,34,17.3,17.3,90,0.00,CLR,,0.00,WeatherDisplay:10.37,2013-11-23 07:52:00,
2013-11-23 01:57:00,37.6,34.9,30.37,NNE,33,8.1,8.1,90,0.00,CLR,,0.00,WeatherDisplay:10.37,2013-11-23 07:57:00,
2013-11-23 02:02:00,37.6,34.9,30.37,NW,316,12.7,12.7,90,0.00,CLR,,0.00,WeatherDisplay:10.37,2013-11-23 08:02:00,
2013-11-23 02:07:00,37.6,34.9,30.37,NNE,12,12.7,12.7,90,0.00,CLR,,0.00,WeatherDisplay:10.37,2013-11-23 08:07:00,
2013-11-23 02:12:00,37.6,35.2,30.37,NE,41,5.8,5.8,91,0.00,CLR,,0.00,WeatherDisplay:10.37,2013-11-23 08:12:00,
2013-11-23 02:17:00,37.6,35.2,30.37,NNE,15,11.5,11.5,91,0.00,CLR,,0.00,WeatherDisplay:10.37,2013-11-23 08:17:00,
2013-11-23 02:22:00,37.6,35.2,30.37,North,349,11.5,11.5,91,0.00,CLR,,0.00,WeatherDisplay:10.37,2013-11-23 08:22:00,
2013-11-23 02:27:00,37.6,35.2,30.38,NNE,14,13.8,13.8,91,0.00,CLR,,0.00,WeatherDisplay:10.37,2013-11-23 08:27:00,
2013-11-23 02:32:00,37.7,35.3,30.38,North,356,12.7,12.7,91,0.00,CLR,,0.00,WeatherDisplay:10.37,2013-11-23 08:32:00,
2013-11-23 02:37:00,37.7,35.3,30.38,North,353,10.4,10.4,91,0.00,CLR,,0.00,WeatherDisplay:10.37,2013-11-23 08:37:00,
2013-11-23 02:42:00,37.7,35.3,30.38,North,6,12.0,12.0,91,0.00,CLR,,0.00,WeatherDisplay:10.37,2013-11-23 08:42:00,
2013-11-23 02:47:00,37.7,35.3,30.37,North,354,13.8,13.8,91,0.00,CLR,,0.00,WeatherDisplay:10.37,2013-11-23 08:47:00,
2013-11-23 02:52:00,37.6,35.2,30.38,NNE,33,16.1,16.1,91,0.00,CLR,,0.00,WeatherDisplay:10.37,2013-11-23 08:52:00,
2013-11-23 02:57:00,37.6,35.5,30.37,WNW,303,15.0,15.0,92,0.00,CLR,,0.00,WeatherDisplay:10.37,2013-11-23 08:57:00,
2013-11-23 03:02:00,37.6,35.5,30.37,NNW,345,18.4,18.4,92,0.00,CLR,,0.00,WeatherDisplay:10.37,2013-11-23 09:02:00,
2013-11-23 03:07:00,37.6,35.2,30.38,NNE,30,12.7,12.7,91,0.00,CLR,,0.00,WeatherDisplay:10.37,2013-11-23 09:07:00,
2013-11-23 03:12:00,37.6,35.2,30.38,NNE,19,15.0,15.0,91,0.00,CLR,,0.00,WeatherDisplay:10.37,2013-11-23 09:12:00,
2013-11-23 03:17:00,37.6,35.2,30.38,North,9,12.7,12.7,91,0.00,CLR,,0.00,WeatherDisplay:10.37,2013-11-23 09:17:00,
2013-11-23 03:22:00,37.5,35.1,30.38,North,357,11.5,11.5,91,0.00,CLR,,0.00,WeatherDisplay:10.37,2013-11-23 09:22:00,
2013-11-23 03:27:00,37.6,35.5,30.37,WNW,300,13.8,13.8,92,0.00,CLR,,0.00,WeatherDisplay:10.37,2013-11-23 09:27:00,
2013-11-23 03:32:00,37.5,35.4,30.38,NE,42,13.8,13.8,92,0.00,CLR,,0.00,WeatherDisplay:10.37,2013-11-23 09:32:00,
2013-11-23 03:37:00,37.6,35.5,30.37,NNW,332,11.5,11.5,92,0.00,CLR,,0.00,WeatherDisplay:10.37,2013-11-23 09:37:00,
2013-11-23 03:42:00,37.6,35.5,30.37,NNW,343,12.7,12.7,92,0.00,CLR,,0.00,WeatherDisplay:10.37,2013-11-23 09:42:00,
2013-11-23 03:47:00,37.7,35.6,30.37,NNE,30,10.4,10.4,92,0.00,CLR,,0.00,WeatherDisplay:10.37,2013-11-23 09:47:00,
2013-11-23 03:52:00,37.7,35.6,30.37,North,9,10.4,10.4,92,0.00,CLR,,0.00,WeatherDisplay:10.37,2013-11-23 09:52:00,
2013-11-23 03:57:00,37.8,35.7,30.37,NNE,19,8.1,8.1,92,0.00,CLR,,0.00,WeatherDisplay:10.37,2013-11-23 09:57:00,
2013-11-23 04:02:00,37.7,35.3,30.37,NNW,341,11.5,11.5,91,0.00,CLR,,0.00,WeatherDisplay:10.37,2013-11-23 10:02:00,
2013-11-23 04:07:00,37.8,35.7,30.37,NNW,341,10.4,10.4,92,0.00,CLR,,0.00,WeatherDisplay:10.37,2013-11-23 10:07:00,
2013-11-23 04:12:00,37.8,35.7,30.37,NNE,23,8.1,8.1,92,0.00,CLR,,0.00,WeatherDisplay:10.37,2013-11-23 10:12:00,
2013-11-23 04:17:00,37.8,35.7,30.37,NNE,12,10.4,10.4,92,0.00,CLR,,0.00,WeatherDisplay:10.37,2013-11-23 10:17:00,
2013-11-23 04:22:00,37.9,35.5,30.37,North,354,11.5,11.5,91,0.00,CLR,,0.00,WeatherDisplay:10.37,2013-11-23 10:22:00,
2013-11-23 04:27:00,37.9,35.5,30.37,NE,45,11.5,11.5,91,0.00,CLR,,0.00,WeatherDisplay:10.37,2013-11-23 10:27:00,
2013-11-23 04:32:00,38.0,35.6,30.37,NNW,347,16.1,16.1,91,0.00,CLR,,0.00,WeatherDisplay:10.37,2013-11-23 10:32:00,
2013-11-23 04:37:00,38.1,35.7,30.37,North,349,10.4,10.4,91,0.00,CLR,,0.00,WeatherDisplay:10.37,2013-11-23 10:37:00,
2013-11-23 04:42:00,38.1,35.7,30.36,NW,321,9.2,9.2,91,0.00,CLR,,0.00,WeatherDisplay:10.37,2013-11-23 10:42:00,
2013-11-23 04:47:00,38.1,35.7,30.36,NNW,347,11.5,11.5,91,0.00,CLR,,0.00,WeatherDisplay:10.37,2013-11-23 10:47:00,
2013-11-23 04:52:00,38.1,35.7,30.36,NNE,18,11.5,11.5,91,0.00,CLR,,0.00,WeatherDisplay:10.37,2013-11-23 10:52:00,
2013-11-23 04:57:00,38.0,35.6,30.37,NNE,13,16.1,16.1,91,0.00,CLR,,0.00,WeatherDisplay:10.37,2013-11-23 10:57:00,
2013-11-23 05:02:00,38.1,35.7,30.37,NNE,20,11.5,11.5,91,0.00,CLR,,0.00,WeatherDisplay:10.37,2013-11-23 11:02:00,
2013-11-23 05:07:00,38.1,35.7,30.37,NNE,27,10.4,10.4,91,0.00,CLR,,0.00,WeatherDisplay:10.37,2013-11-23 11:07:00,
2013-11-23 05:12:00,38.1,35.7,30.37,NNE,27,10.4,10.4,91,0.00,CLR,,0.00,WeatherDisplay:10.37,2013-11-23 11:12:00,
2013-11-23 05:17:00,38.1,35.7,30.37,North,349,10.4,10.4,91,0.00,CLR,,0.00,WeatherDisplay:10.37,2013-11-23 11:17:00,
2013-11-23 05:22:00,38.1,35.4,30.38,NNE,12,10.4,10.4,90,0.00,CLR,,0.00,WeatherDisplay:10.37,2013-11-23 11:22:00,
2013-11-23 05:27:00,38.1,35.4,30.38,NNE,30,6.9,6.9,90,0.00,CLR,,0.00,WeatherDisplay:10.37,2013-11-23 11:27:00,
2013-11-23 05:32:00,38.1,35.4,30.38,NNE,33,4.6,4.6,90,0.00,CLR,,0.00,WeatherDisplay:10.37,2013-11-23 11:32:00,
2013-11-23 05:37:00,38.1,35.4,30.38,NNE,33,10.4,10.4,90,0.00,CLR,,0.00,WeatherDisplay:10.37,2013-11-23 11:37:00,
2013-11-23 05:42:00,38.1,35.4,30.38,NE,51,15.0,15.0,90,0.00,CLR,,0.00,WeatherDisplay:10.37,2013-11-23 11:42:00,
2013-11-23 05:47:00,38.2,35.5,30.38,East,85,11.5,11.5,90,0.00,CLR,,0.00,WeatherDisplay:10.37,2013-11-23 11:47:00,
2013-11-23 05:52:00,38.2,35.5,30.38,NNW,345,13.8,13.8,90,0.00,CLR,,0.00,WeatherDisplay:10.37,2013-11-23 11:52:00,
2013-11-23 05:57:00,38.3,35.6,30.38,ENE,61,13.8,13.8,90,0.00,CLR,,0.00,WeatherDisplay:10.37,2013-11-23 11:57:00,
2013-11-23 06:02:00,38.3,35.6,30.39,NNW,333,12.7,12.7,90,0.00,CLR,,0.00,WeatherDisplay:10.37,2013-11-23 12:02:00,
2013-11-23 06:07:00,38.3,35.3,30.39,NNE,12,19.0,19.0,89,0.00,CLR,,0.00,WeatherDisplay:10.37,2013-11-23 12:07:00,
2013-11-23 06:12:00,38.4,35.4,30.39,NNE,19,18.4,18.4,89,0.00,CLR,,0.00,WeatherDisplay:10.37,2013-11-23 12:12:00,
2013-11-23 06:17:00,38.5,35.5,30.39,NNW,347,11.5,11.5,89,0.00,CLR,,0.00,WeatherDisplay:10.37,2013-11-23 12:17:00,
2013-11-23 06:22:00,38.5,35.5,30.40,NW,313,8.1,8.1,89,0.00,CLR,,0.00,WeatherDisplay:10.37,2013-11-23 12:22:00,
2013-11-23 06:27:00,38.5,35.5,30.40,North,4,8.1,8.1,89,0.00,CLR,,0.00,WeatherDisplay:10.37,2013-11-23 12:27:00,
2013-11-23 06:32:00,38.6,35.6,30.40,NW,309,9.2,9.2,89,0.00,CLR,,0.00,WeatherDisplay:10.37,2013-11-23 12:32:00,
2013-11-23 06:37:00,38.6,35.6,30.40,West,274,12.7,12.7,89,0.00,CLR,,0.00,WeatherDisplay:10.37,2013-11-23 12:37:00,
2013-11-23 06:42:00,38.6,35.6,30.40,North,1,6.9,6.9,89,0.00,CLR,,0.00,WeatherDisplay:10.37,2013-11-23 12:42:00,
2013-11-23 06:47:00,38.6,35.6,30.40,NNW,345,11.5,11.5,89,0.00,CLR,,0.00,WeatherDisplay:10.37,2013-11-23 12:47:00,
2013-11-23 06:52:00,38.5,35.5,30.40,North,6,18.0,18.0,89,0.00,CLR,,0.00,WeatherDisplay:10.37,2013-11-23 12:52:00,
2013-11-23 06:57:00,38.5,35.5,30.41,NNW,335,12.7,12.7,89,0.00,CLR,,0.00,WeatherDisplay:10.37,2013-11-23 12:57:00,
2013-11-23 07:02:00,38.5,35.3,30.41,NNW,342,11.5,11.5,88,0.00,CLR,,0.00,WeatherDisplay:10.37,2013-11-23 13:02:00,
2013-11-23 07:07:00,38.5,35.5,30.41,NW,321,8.1,8.1,89,0.00,CLR,,0.00,WeatherDisplay:10.37,2013-11-23 13:07:00,
2013-11-23 07:12:00,38.5,35.5,30.42,North,11,11.5,11.5,89,0.00,CLR,,0.00,WeatherDisplay:10.37,2013-11-23 13:12:00,
2013-11-23 07:17:00,38.5,35.3,30.42,NE,37,13.8,13.8,88,0.00,CLR,,0.00,WeatherDisplay:10.37,2013-11-23 13:17:00,
2013-11-23 07:22:00,38.5,35.3,30.42,WNW,295,11.5,11.5,88,0.00,CLR,,0.00,WeatherDisplay:10.37,2013-11-23 13:22:00,
2013-11-23 07:27:00,38.4,35.2,30.43,NNW,348,12.7,12.7,88,0.00,CLR,,0.00,WeatherDisplay:10.37,2013-11-23 13:27:00,
2013-11-23 07:32:00,38.4,35.2,30.43,North,6,11.5,11.5,88,0.00,CLR,,0.00,WeatherDisplay:10.37,2013-11-23 13:32:00,
2013-11-23 07:37:00,38.4,35.4,30.43,NNW,347,5.8,5.8,89,0.00,CLR,,0.00,WeatherDisplay:10.37,2013-11-23 13:37:00,
2013-11-23 07:42:00,38.5,35.5,30.44,ENE,78,11.5,11.5,89,0.00,CLR,,0.00,WeatherDisplay:10.37,2013-11-23 13:42:00,
2013-11-23 07:47:00,38.4,35.4,30.44,ENE,67,12.7,12.7,89,0.00,CLR,,0.00,WeatherDisplay:10.37,2013-11-23 13:47:00,
2013-11-23 07:52:00,38.3,35.3,30.45,North,11,11.5,11.5,89,0.00,CLR,,0.00,WeatherDisplay:10.37,2013-11-23 13:52:00,
2013-11-23 07:57:00,38.2,35.0,30.45,North,349,15.0,15.0,88,0.00,CLR,,0.00,WeatherDisplay:10.37,2013-11-23 13:57:00,
2013-11-23 08:02:00,38.1,34.9,30.45,NNW,339,17.3,17.3,88,0.00,CLR,,0.00,WeatherDisplay:10.37,2013-11-23 14:02:00,
2013-11-23 08:07:00,38.1,35.1,30.45,NNE,27,9.2,9.2,89,0.00,CLR,,0.00,WeatherDisplay:10.37,2013-11-23 14:07:00,
2013-11-23 08:12:00,38.1,34.9,30.46,NNW,335,15.0,15.0,88,0.00,CLR,,0.00,WeatherDisplay:10.37,2013-11-23 14:12:00,
2013-11-23 08:17:00,38.0,35.0,30.46,NNW,347,11.5,11.5,89,0.00,CLR,,0.00,WeatherDisplay:10.37,2013-11-23 14:17:00,
2013-11-23 08:22:00,38.0,35.0,30.47,North,354,8.1,8.1,89,0.00,CLR,,0.00,WeatherDisplay:10.37,2013-11-23 14:22:00,
2013-11-23 08:27:00,38.1,35.1,30.47,NNE,12,15.0,15.0,89,0.00,CLR,,0.00,WeatherDisplay:10.37,2013-11-23 14:27:00,
2013-11-23 08:32:00,38.1,34.9,30.46,NNE,18,13.8,13.8,88,0.00,CLR,,0.00,WeatherDisplay:10.37,2013-11-23 14:32:00,
2013-11-23 08:37:00,38.1,34.9,30.46,ENE,57,11.5,11.5,88,0.00,CLR,,0.00,WeatherDisplay:10.37,2013-11-23 14:37:00,
2013-11-23 08:42:00,38.1,34.9,30.47,NW,326,15.0,15.0,88,0.00,CLR,,0.00,WeatherDisplay:10.37,2013-11-23 14:42:00,
2013-11-23 08:47:00,38.2,35.0,30.46,NNW,341,8.1,8.1,88,0.00,CLR,,0.00,WeatherDisplay:10.37,2013-11-23 14:47:00,
2013-11-23 08:52:00,38.3,35.1,30.46,NNE,27,12.7,12.7,88,0.00,CLR,,0.00,WeatherDisplay:10.37,2013-11-23 14:52:00,
2013-11-23 08:57:00,38.3,35.1,30.46,NNW,340,12.7,12.7,88,0.00,CLR,,0.00,WeatherDisplay:10.37,2013-11-23 14:57:00,
2013-11-23 09:02:00,38.4,35.2,30.46,NE,46,11.5,11.5,88,0.00,CLR,,0.00,WeatherDisplay:10.37,2013-11-23 15:02:00,
2013-11-23 09:07:00,38.4,35.2,30.46,NE,43,13.8,13.8,88,0.00,CLR,,0.00,WeatherDisplay:10.37,2013-11-23 15:07:00,
2013-11-23 09:12:00,38.5,35.3,30.47,NW,316,11.5,11.5,88,0.00,CLR,,0.00,WeatherDisplay:10.37,2013-11-23 15:12:00,
2013-11-23 09:17:00,38.6,35.6,30.46,North,8,5.8,6.7,89,0.00,CLR,,0.00,WeatherDisplay:10.37,2013-11-23 15:17:00,
2013-11-23 09:22:00,38.6,35.4,30.46,NNE,30,11.5,11.5,88,0.00,CLR,,0.00,WeatherDisplay:10.37,2013-11-23 15:22:00,
2013-11-23 09:27:00,38.6,35.4,30.46,NW,319,19.6,19.6,88,0.00,CLR,,0.00,WeatherDisplay:10.37,2013-11-23 15:27:00,
2013-11-23 09:32:00,38.7,35.2,30.46,NNE,15,11.5,11.5,87,0.00,CLR,,0.00,WeatherDisplay:10.37,2013-11-23 15:32:00,
2013-11-23 09:37:00,38.9,35.6,30.46,NW,322,11.5,11.5,88,0.00,CLR,,0.00,WeatherDisplay:10.37,2013-11-23 15:37:00,
2013-11-23 09:42:00,39.1,35.8,30.46,North,357,11.5,11.5,88,0.00,CLR,,0.00,WeatherDisplay:10.37,2013-11-23 15:42:00,
2013-11-23 09:47:00,39.0,35.5,30.46,NNW,342,18.4,18.4,87,0.00,CLR,,0.00,WeatherDisplay:10.37,2013-11-23 15:47:00,
2013-11-23 09:52:00,39.0,35.5,30.46,NNW,342,18.4,18.4,87,0.00,CLR,,0.00,WeatherDisplay:10.37,2013-11-23 15:52:00,
2013-11-23 09:57:00,39.1,35.6,30.46,North,355,12.7,12.7,87,0.00,CLR,,0.00,WeatherDisplay:10.37,2013-11-23 15:57:00,
2013-11-23 10:02:00,39.1,35.3,30.46,NW,326,13.8,13.8,86,0.00,CLR,,0.00,WeatherDisplay:10.37,2013-11-23 16:02:00,
2013-11-23 10:07:00,39.1,35.6,30.45,NNW,333,11.5,11.5,87,0.00,CLR,,0.00,WeatherDisplay:10.37,2013-11-23 16:07:00,
2013-11-23 10:12:00,39.1,35.6,30.45,NW,312,16.1,16.1,87,0.00,CLR,,0.00,WeatherDisplay:10.37,2013-11-23 16:12:00,
2013-11-23 10:17:00,39.1,35.6,30.45,NE,46,15.0,15.0,87,0.00,CLR,,0.00,WeatherDisplay:10.37,2013-11-23 16:17:00,
2013-11-23 10:22:00,39.2,35.4,30.45,NNE,27,18.4,18.4,86,0.00,CLR,,0.00,WeatherDisplay:10.37,2013-11-23 16:22:00,
2013-11-23 10:27:00,39.5,36.0,30.45,NNE,13,19.6,19.6,87,0.00,CLR,,0.00,WeatherDisplay:10.37,2013-11-23 16:27:00,
2013-11-23 10:32:00,39.8,36.2,30.45,NE,53,12.7,12.7,87,0.00,CLR,,0.00,WeatherDisplay:10.37,2013-11-23 16:32:00,
2013-11-23 10:37:00,39.9,36.1,30.45,North,4,18.4,18.4,86,0.00,CLR,,0.00,WeatherDisplay:10.37,2013-11-23 16:37:00,
2013-11-23 10:42:00,40.0,36.2,30.46,North,350,17.3,17.3,86,0.00,CLR,,0.00,WeatherDisplay:10.37,2013-11-23 16:42:00,
2013-11-23 10:47:00,40.0,36.2,30.46,North,9,13.8,13.8,86,0.00,CLR,,0.00,WeatherDisplay:10.37,2013-11-23 16:47:00,
2013-11-23 10:52:00,40.1,36.5,30.46,NNW,334,10.4,10.4,87,0.00,CLR,,0.00,WeatherDisplay:10.37,2013-11-23 16:52:00,
2013-11-23 10:57:00,40.3,36.7,30.45,North,355,9.2,9.2,87,0.00,CLR,,0.00,WeatherDisplay:10.37,2013-11-23 16:57:00,
2013-11-23 11:02:00,40.5,36.6,30.45,North,357,9.2,9.2,86,0.00,CLR,,0.00,WeatherDisplay:10.37,2013-11-23 17:02:00,
2013-11-23 11:07:00,40.7,36.8,30.45,NNE,19,11.5,11.5,86,0.00,CLR,,0.00,WeatherDisplay:10.37,2013-11-23 17:07:00,
2013-11-23 11:12:00,40.7,36.5,30.45,NNW,347,18.4,18.4,85,0.00,CLR,,0.00,WeatherDisplay:10.37,2013-11-23 17:12:00,
2013-11-23 11:17:00,40.6,36.4,30.44,NE,44,16.1,16.1,85,0.00,CLR,,0.00,WeatherDisplay:10.37,2013-11-23 17:17:00,
2013-11-23 11:22:00,40.9,37.0,30.44,ENE,63,13.0,13.0,86,0.00,CLR,,0.00,WeatherDisplay:10.37,2013-11-23 17:22:00,
2013-11-23 11:27:00,40.9,36.7,30.44,NW,323,12.7,12.7,85,0.00,CLR,,0.00,WeatherDisplay:10.37,2013-11-23 17:27:00,
2013-11-23 11:32:00,41.0,36.8,30.44,NE,51,10.4,10.4,85,0.00,CLR,,0.00,WeatherDisplay:10.37,2013-11-23 17:32:00,
2013-11-23 11:37:00,41.0,36.8,30.44,NNE,18,17.3,17.3,85,0.00,CLR,,0.00,WeatherDisplay:10.37,2013-11-23 17:37:00,
2013-11-23 11:42:00,41.2,37.3,30.44,NNW,340,12.7,12.7,86,0.00,CLR,,0.00,WeatherDisplay:10.37,2013-11-23 17:42:00,
2013-11-23 11:47:00,41.2,37.0,30.44,NE,56,13.8,13.8,85,0.00,CLR,,0.00,WeatherDisplay:10.37,2013-11-23 17:47:00,
2013-11-23 11:52:00,41.1,36.6,30.44,NNE,12,12.7,12.7,84,0.00,CLR,,0.00,WeatherDisplay:10.37,2013-11-23 17:52:00,
2013-11-23 11:57:00,41.0,36.8,30.44,NNE,22,15.0,15.0,85,0.00,CLR,,0.00,WeatherDisplay:10.37,2013-11-23 17:57:00,
2013-11-23 12:02:00,41.1,36.9,30.43,North,1,11.5,11.5,85,0.00,CLR,,0.00,WeatherDisplay:10.37,2013-11-23 18:02:00,
2013-11-23 12:07:00,41.2,37.0,30.43,North,349,15.0,15.0,85,0.00,CLR,,0.00,WeatherDisplay:10.37,2013-11-23 18:07:00,
2013-11-23 12:12:00,41.2,37.0,30.43,NNW,333,13.8,13.8,85,0.00,CLR,,0.00,WeatherDisplay:10.37,2013-11-23 18:12:00,
2013-11-23 12:17:00,41.4,37.2,30.43,NNW,343,17.3,17.3,85,0.00,CLR,,0.00,WeatherDisplay:10.37,2013-11-23 18:17:00,
2013-11-23 12:22:00,41.5,37.3,30.43,NW,321,11.5,11.5,85,0.00,CLR,,0.00,WeatherDisplay:10.37,2013-11-23 18:22:00,
2013-11-23 12:27:00,41.5,37.3,30.42,NNE,18,13.8,13.8,85,0.00,CLR,,0.00,WeatherDisplay:10.37,2013-11-23 18:27:00,
2013-11-23 12:32:00,41.5,37.3,30.42,North,357,13.8,13.8,85,0.00,CLR,,0.00,WeatherDisplay:10.37,2013-11-23 18:32:00,
2013-11-23 12:37:00,41.5,37.3,30.42,North,360,16.1,16.1,85,0.00,CLR,,0.00,WeatherDisplay:10.37,2013-11-23 18:37:00,
2013-11-23 12:42:00,41.6,37.4,30.42,North,351,11.5,11.5,85,0.00,CLR,,0.00,WeatherDisplay:10.37,2013-11-23 18:42:00,
2013-11-23 12:47:00,41.5,37.3,30.42,NNE,18,12.0,12.0,85,0.00,CLR,,0.00,WeatherDisplay:10.37,2013-11-23 18:47:00,
2013-11-23 12:52:00,41.2,37.0,30.41,North,360,16.0,16.0,85,0.00,CLR,,0.00,WeatherDisplay:10.37,2013-11-23 18:52:00,
2013-11-23 12:57:00,41.2,37.0,30.41,NNE,33,16.1,16.1,85,0.00,CLR,,0.00,WeatherDisplay:10.37,2013-11-23 18:57:00,
2013-11-23 13:02:00,41.2,37.0,30.40,North,349,12.7,12.7,85,0.00,CLR,,0.00,WeatherDisplay:10.37,2013-11-23 19:02:00,
2013-11-23 13:07:00,41.3,37.1,30.40,ENE,70,13.8,13.8,85,0.00,CLR,,0.00,WeatherDisplay:10.37,2013-11-23 19:07:00,
2013-11-23 13:12:00,41.5,37.3,30.40,NNE,19,12.7,12.7,85,0.00,CLR,,0.00,WeatherDisplay:10.37,2013-11-23 19:12:00,
2013-11-23 13:17:00,41.8,37.6,30.40,North,349,11.5,11.5,85,0.00,CLR,,0.00,WeatherDisplay:10.37,2013-11-23 19:17:00,
2013-11-23 13:22:00,41.9,37.7,30.40,ENE,66,10.4,10.4,85,0.00,CLR,,0.00,WeatherDisplay:10.37,2013-11-23 19:22:00,
2013-11-23 13:27:00,41.9,37.7,30.40,NE,39,10.4,10.4,85,0.00,CLR,,0.00,WeatherDisplay:10.37,2013-11-23 19:27:00,
2013-11-23 13:32:00,42.0,37.8,30.40,North,4,11.5,11.5,85,0.00,CLR,,0.00,WeatherDisplay:10.37,2013-11-23 19:32:00,
2013-11-23 13:37:00,42.0,37.8,30.39,NNE,18,15.0,15.0,85,0.00,CLR,,0.00,WeatherDisplay:10.37,2013-11-23 19:37:00,
2013-11-23 13:42:00,42.0,37.8,30.40,NNE,13,15.0,15.0,85,0.00,CLR,,0.00,WeatherDisplay:10.37,2013-11-23 19:42:00,
2013-11-23 13:47:00,42.0,37.8,30.40,North,9,13.8,13.8,85,0.00,CLR,,0.00,WeatherDisplay:10.37,2013-11-23 19:47:00,
2013-11-23 13:52:00,42.1,37.9,30.39,North,6,18.4,18.4,85,0.00,CLR,,0.00,WeatherDisplay:10.37,2013-11-23 19:52:00,
2013-11-23 13:57:00,42.0,37.8,30.39,North,352,17.3,17.3,85,0.00,CLR,,0.00,WeatherDisplay:10.37,2013-11-23 19:57:00,
2013-11-23 14:02:00,42.1,38.2,30.39,NNE,19,18.4,18.4,86,0.00,CLR,,0.00,WeatherDisplay:10.37,2013-11-23 20:02:00,
2013-11-23 14:07:00,42.1,38.2,30.38,North,5,16.1,16.1,86,0.00,CLR,,0.00,WeatherDisplay:10.37,2013-11-23 20:07:00,
2013-11-23 14:12:00,41.9,38.0,30.38,NNW,337,16.1,16.1,86,0.00,CLR,,0.00,WeatherDisplay:10.37,2013-11-23 20:12:00,
2013-11-23 14:17:00,41.9,38.0,30.38,NNE,16,13.8,13.8,86,0.00,CLR,,0.00,WeatherDisplay:10.37,2013-11-23 20:17:00,
2013-11-23 14:22:00,42.0,38.1,30.38,NNW,337,17.3,17.3,86,0.00,CLR,,0.00,WeatherDisplay:10.37,2013-11-23 20:22:00,
2013-11-23 14:27:00,41.9,38.0,30.38,North,10,11.5,11.5,86,0.00,CLR,,0.00,WeatherDisplay:10.37,2013-11-23 20:27:00,
2013-11-23 14:32:00,41.9,38.0,30.38,NNE,29,16.1,16.1,86,0.00,CLR,,0.00,WeatherDisplay:10.37,2013-11-23 20:32:00,
2013-11-23 14:37:00,41.8,37.9,30.38,North,8,16.1,16.1,86,0.00,CLR,,0.00,WeatherDisplay:10.37,2013-11-23 20:37:00,
2013-11-23 14:42:00,41.7,38.1,30.39,NNE,30,4.6,4.6,87,0.00,CLR,,0.00,WeatherDisplay:10.37,2013-11-23 20:42:00,
2013-11-23 14:47:00,41.8,38.2,30.39,North,355,13.8,13.8,87,0.00,CLR,,0.00,WeatherDisplay:10.37,2013-11-23 20:47:00,
2013-11-23 14:52:00,41.8,38.2,30.39,North,352,13.8,13.8,87,0.00,CLR,,0.00,WeatherDisplay:10.37,2013-11-23 20:52:00,
2013-11-23 14:57:00,41.9,38.3,30.39,North,1,13.8,13.8,87,0.00,CLR,,0.00,WeatherDisplay:10.37,2013-11-23 20:57:00,
2013-11-23 15:02:00,42.0,38.1,30.38,NNE,23,16.1,16.1,86,0.00,CLR,,0.00,WeatherDisplay:10.37,2013-11-23 21:02:00,
2013-11-23 15:07:00,41.9,38.0,30.38,NNW,340,12.7,12.7,86,0.00,CLR,,0.00,WeatherDisplay:10.37,2013-11-23 21:07:00,
2013-11-23 15:12:00,41.8,37.9,30.38,NE,34,13.8,13.8,86,0.00,CLR,,0.00,WeatherDisplay:10.37,2013-11-23 21:12:00,
2013-11-23 15:17:00,41.9,38.0,30.39,NNE,12,11.5,11.5,86,0.00,CLR,,0.00,WeatherDisplay:10.37,2013-11-23 21:17:00,
2013-11-23 15:22:00,41.8,37.9,30.39,NW,316,13.8,13.8,86,0.00,CLR,,0.00,WeatherDisplay:10.37,2013-11-23 21:22:00,
2013-11-23 15:27:00,41.9,38.3,30.38,NE,36,11.5,11.5,87,0.00,CLR,,0.00,WeatherDisplay:10.37,2013-11-23 21:27:00,
2013-11-23 15:32:00,42.0,38.4,30.39,NNE,12,6.9,6.9,87,0.00,CLR,,0.00,WeatherDisplay:10.37,2013-11-23 21:32:00,
2013-11-23 15:37:00,42.0,38.4,30.39,NNE,25,12.7,12.7,87,0.00,CLR,,0.00,WeatherDisplay:10.37,2013-11-23 21:37:00,
2013-11-23 15:42:00,42.2,38.3,30.39,North,357,13.8,13.8,86,0.00,CLR,,0.00,WeatherDisplay:10.37,2013-11-23 21:42:00,
2013-11-23 15:47:00,42.2,38.3,30.39,North,358,19.6,19.6,86,0.00,CLR,,0.00,WeatherDisplay:10.37,2013-11-23 21:47:00,
2013-11-23 15:52:00,42.0,38.1,30.39,North,6,11.5,11.5,86,0.00,CLR,,0.00,WeatherDisplay:10.37,2013-11-23 21:52:00,
2013-11-23 15:57:00,42.0,38.1,30.39,NNE,20,6.9,6.9,86,0.00,CLR,,0.00,WeatherDisplay:10.37,2013-11-23 21:57:00,
2013-11-23 16:02:00,42.1,38.2,30.38,NNE,30,17.3,17.3,86,0.00,CLR,,0.00,WeatherDisplay:10.37,2013-11-23 22:02:00,
2013-11-23 16:07:00,42.2,38.3,30.38,ENE,64,17.3,17.3,86,0.00,CLR,,0.00,WeatherDisplay:10.37,2013-11-23 22:07:00,
2013-11-23 16:12:00,42.1,38.2,30.38,NNE,21,17.3,17.3,86,0.00,CLR,,0.00,WeatherDisplay:10.37,2013-11-23 22:12:00,
2013-11-23 16:17:00,42.2,38.3,30.38,North,359,12.7,12.7,86,0.00,CLR,,0.00,WeatherDisplay:10.37,2013-11-23 22:17:00,
2013-11-23 16:22:00,42.3,38.4,30.39,ENE,61,12.7,12.7,86,0.00,CLR,,0.00,WeatherDisplay:10.37,2013-11-23 22:22:00,
2013-11-23 16:27:00,42.3,38.7,30.39,North,360,11.5,11.5,87,0.00,CLR,,0.00,WeatherDisplay:10.37,2013-11-23 22:27:00,
2013-11-23 16:32:00,42.3,38.7,30.39,NW,316,11.5,11.5,87,0.00,CLR,,0.00,WeatherDisplay:10.37,2013-11-23 22:32:00,
2013-11-23 16:37:00,42.3,38.7,30.39,NNW,337,10.4,10.4,87,0.00,CLR,,0.00,WeatherDisplay:10.37,2013-11-23 22:37:00,
2013-11-23 16:42:00,42.2,38.9,30.39,NNW,337,10.4,10.4,88,0.00,CLR,,0.00,WeatherDisplay:10.37,2013-11-23 22:42:00,
2013-11-23 16:47:00,42.0,38.7,30.40,NNW,330,11.5,11.5,88,0.00,CLR,,0.00,WeatherDisplay:10.37,2013-11-23 22:47:00,
2013-11-23 16:52:00,41.9,38.6,30.40,NNE,15,10.4,10.4,88,0.00,CLR,,0.00,WeatherDisplay:10.37,2013-11-23 22:52:00,
2013-11-23 16:57:00,41.9,38.9,30.40,NE,56,10.4,10.4,89,0.00,CLR,,0.00,WeatherDisplay:10.37,2013-11-23 22:57:00,
2013-11-23 17:03:00,41.8,38.8,30.40,North,5,16.1,16.1,89,0.00,CLR,,0.00,WeatherDisplay:10.37,2013-11-23 23:03:00,
2013-11-23 17:08:00,41.7,38.7,30.40,NNE,27,17.3,17.3,89,0.00,CLR,,0.00,WeatherDisplay:10.37,2013-11-23 23:08:00,
2013-11-23 17:09:00,41.6,38.6,30.40,NNE,13,15.0,15.0,89,0.00,CLR,,0.00,WeatherDisplay:10.37,2013-11-23 23:09:00,
2013-11-23 17:14:00,41.6,38.9,30.40,ENE,62,10.4,10.4,90,0.00,CLR,,0.00,WeatherDisplay:10.37,2013-11-23 23:14:00,
2013-11-23 17:19:00,41.4,38.7,30.40,NNW,347,6.9,6.9,90,0.00,CLR,,0.00,WeatherDisplay:10.37,2013-11-23 23:19:00,
2013-11-23 17:24:00,41.1,38.7,30.40,NNE,25,11.5,11.5,91,0.00,CLR,,0.00,WeatherDisplay:10.37,2013-11-23 23:24:00,
2013-11-23 17:29:00,40.9,38.5,30.40,North,353,12.7,12.7,91,0.00,CLR,,0.00,WeatherDisplay:10.37,2013-11-23 23:29:00,
2013-11-23 17:34:00,40.8,38.7,30.41,ENE,58,10.4,10.4,92,0.00,CLR,,0.00,WeatherDisplay:10.37,2013-11-23 23:34:00,
2013-11-23 17:39:00,40.6,38.5,30.41,North,8,13.8,13.8,92,0.00,CLR,,0.00,WeatherDisplay:10.37,2013-11-23 23:39:00,
2013-11-23 17:44:00,40.6,38.7,30.41,North,9,13.8,13.8,93,0.00,CLR,,0.00,WeatherDisplay:10.37,2013-11-23 23:44:00,
2013-11-23 17:49:00,40.5,38.6,30.41,NNW,337,9.2,9.2,93,0.00,CLR,,0.00,WeatherDisplay:10.37,2013-11-23 23:49:00,
2013-11-23 17:54:00,40.6,38.7,30.41,North,356,10.4,10.4,93,0.00,CLR,,0.00,WeatherDisplay:10.37,2013-11-23 23:54:00,
2013-11-23 17:59:00,40.5,38.6,30.41,NNE,18,15.0,15.0,93,0.00,CLR,,0.00,WeatherDisplay:10.37,2013-11-23 23:59:00,
2013-11-23 18:04:00,40.5,38.6,30.41,NNW,340,15.0,15.0,93,0.00,CLR,,0.00,WeatherDisplay:10.37,2013-11-24 00:04:00,
2013-11-23 18:09:00,40.5,38.6,30.41,NNW,333,12.7,12.7,93,0.00,CLR,,0.00,WeatherDisplay:10.37,2013-11-24 00:09:00,
2013-11-23 18:14:00,40.4,38.5,30.41,NNE,30,12.7,12.7,93,0.00,CLR,,0.00,WeatherDisplay:10.37,2013-11-24 00:14:00,
2013-11-23 18:19:00,40.4,38.5,30.41,North,9,11.5,11.5,93,0.00,CLR,,0.00,WeatherDisplay:10.37,2013-11-24 00:19:00,
2013-11-23 18:24:00,40.4,38.5,30.41,NE,53,15.0,15.0,93,0.00,CLR,,0.00,WeatherDisplay:10.37,2013-11-24 00:24:00,
2013-11-23 18:29:00,40.4,38.5,30.42,NNW,330,15.0,15.0,93,0.00,CLR,,0.00,WeatherDisplay:10.37,2013-11-24 00:29:00,
2013-11-23 18:34:00,40.4,38.5,30.42,NE,41,10.4,10.4,93,0.00,CLR,,0.00,WeatherDisplay:10.37,2013-11-24 00:34:00,
2013-11-23 18:39:00,40.4,38.5,30.42,NNW,343,12.7,12.7,93,0.00,CLR,,0.00,WeatherDisplay:10.37,2013-11-24 00:39:00,
2013-11-23 18:44:00,40.4,38.5,30.42,North,351,11.5,11.5,93,0.00,CLR,,0.00,WeatherDisplay:10.37,2013-11-24 00:44:00,
2013-11-23 18:49:00,40.3,38.4,30.42,NE,50,12.7,12.7,93,0.00,CLR,,0.00,WeatherDisplay:10.37,2013-11-24 00:49:00,
2013-11-23 18:54:00,40.3,38.7,30.42,NNE,25,8.1,8.1,94,0.00,CLR,,0.00,WeatherDisplay:10.37,2013-11-24 00:54:00,
2013-11-23 18:59:00,40.2,38.6,30.42,NNE,12,6.9,6.9,94,0.00,CLR,,0.00,WeatherDisplay:10.37,2013-11-24 00:59:00,
2013-11-23 19:04:00,40.1,38.5,30.42,NNE,18,17.3,17.3,94,0.00,CLR,,0.00,WeatherDisplay:10.37,2013-11-24 01:04:00,
2013-11-23 19:09:00,40.1,38.5,30.43,NNE,16,11.5,11.5,94,0.00,CLR,,0.00,WeatherDisplay:10.37,2013-11-24 01:09:00,
2013-11-23 19:14:00,40.0,38.7,30.43,NW,321,12.7,12.7,95,0.00,CLR,,0.00,WeatherDisplay:10.37,2013-11-24 01:14:00,
2013-11-23 19:19:00,40.0,38.7,30.43,NE,49,13.8,13.8,95,0.00,CLR,,0.00,WeatherDisplay:10.37,2013-11-24 01:19:00,
2013-11-23 19:24:00,40.0,38.7,30.43,NE,44,12.7,12.7,95,0.00,CLR,,0.00,WeatherDisplay:10.37,2013-11-24 01:24:00,
2013-11-23 19:29:00,40.0,38.7,30.43,NNW,336,11.5,11.5,95,0.00,CLR,,0.00,WeatherDisplay:10.37,2013-11-24 01:29:00,
2013-11-23 19:34:00,40.1,38.8,30.43,NNW,330,8.1,8.1,95,0.00,CLR,,0.00,WeatherDisplay:10.37,2013-11-24 01:34:00,
2013-11-23 19:39:00,40.2,38.9,30.43,NE,36,15.0,15.0,95,0.00,CLR,,0.00,WeatherDisplay:10.37,2013-11-24 01:39:00,
2013-11-23 19:44:00,40.2,38.9,30.43,North,5,10.4,10.4,95,0.00,CLR,,0.00,WeatherDisplay:10.37,2013-11-24 01:44:00,
2013-11-23 19:49:00,40.3,39.0,30.44,NNW,328,8.1,8.1,95,0.00,CLR,,0.00,WeatherDisplay:10.37,2013-11-24 01:49:00,
2013-11-23 19:54:00,40.3,39.0,30.44,North,5,12.7,12.7,95,0.00,CLR,,0.00,WeatherDisplay:10.37,2013-11-24 01:54:00,
2013-11-23 19:59:00,40.2,38.9,30.44,NNW,347,8.1,8.1,95,0.00,CLR,,0.00,WeatherDisplay:10.37,2013-11-24 01:59:00,
2013-11-23 20:04:00,40.2,38.9,30.44,North,354,11.5,11.5,95,0.00,CLR,,0.00,WeatherDisplay:10.37,2013-11-24 02:04:00,
2013-11-23 20:09:00,40.2,38.9,30.44,NNE,17,11.5,11.5,95,0.00,CLR,,0.00,WeatherDisplay:10.37,2013-11-24 02:09:00,
2013-11-23 20:14:00,40.2,38.9,30.44,NNE,27,12.7,12.7,95,0.00,CLR,,0.00,WeatherDisplay:10.37,2013-11-24 02:14:00,
2013-11-23 20:19:00,40.2,38.9,30.44,NNE,14,9.2,9.2,95,0.00,CLR,,0.00,WeatherDisplay:10.37,2013-11-24 02:19:00,
2013-11-23 20:24:00,40.3,39.0,30.44,NE,44,12.7,12.7,95,0.00,CLR,,0.00,WeatherDisplay:10.37,2013-11-24 02:24:00,
2013-11-23 20:29:00,40.3,39.0,30.44,NW,319,11.5,11.5,95,0.00,CLR,,0.00,WeatherDisplay:10.37,2013-11-24 02:29:00,
2013-11-23 20:34:00,40.4,39.1,30.45,NE,41,9.2,9.2,95,0.00,CLR,,0.00,WeatherDisplay:10.37,2013-11-24 02:34:00,
2013-11-23 20:39:00,40.4,39.1,30.45,NNE,17,9.0,9.0,95,0.00,CLR,,0.00,WeatherDisplay:10.37,2013-11-24 02:39:00,
2013-11-23 20:44:00,40.5,39.2,30.45,NE,38,9.2,9.2,95,0.00,CLR,,0.00,WeatherDisplay:10.37,2013-11-24 02:44:00,
2013-11-23 20:49:00,40.5,39.2,30.45,NNE,18,9.2,9.2,95,0.00,CLR,,0.00,WeatherDisplay:10.37,2013-11-24 02:49:00,
2013-11-23 20:54:00,40.5,39.2,30.45,North,349,11.5,11.5,95,0.00,CLR,,0.00,WeatherDisplay:10.37,2013-11-24 02:54:00,
2013-11-23 20:59:00,40.5,39.2,30.45,North,358,10.4,10.4,95,0.00,CLR,,0.00,WeatherDisplay:10.37,2013-11-24 02:59:00,
2013-11-23 21:04:00,40.6,39.3,30.45,NNE,20,10.4,10.4,95,0.00,CLR,,0.00,WeatherDisplay:10.37,2013-11-24 03:04:00,
2013-11-23 21:09:00,40.7,39.4,30.44,North,4,10.4,10.4,95,0.00,CLR,,0.00,WeatherDisplay:10.37,2013-11-24 03:09:00,
2013-11-23 21:14:00,40.7,39.4,30.44,WNW,301,11.5,11.5,95,0.00,CLR,,0.00,WeatherDisplay:10.37,2013-11-24 03:14:00,
2013-11-23 21:19:00,40.8,39.5,30.45,NE,38,15.0,15.0,95,0.00,CLR,,0.00,WeatherDisplay:10.37,2013-11-24 03:19:00,
2013-11-23 21:24:00,40.9,39.3,30.45,NNE,13,11.5,11.5,94,0.00,CLR,,0.00,WeatherDisplay:10.37,2013-11-24 03:24:00,
2013-11-23 21:29:00,40.9,39.3,30.45,NNE,18,9.2,9.2,94,0.00,CLR,,0.00,WeatherDisplay:10.37,2013-11-24 03:29:00,
2013-11-23 21:34:00,41.0,39.4,30.45,NNW,344,17.3,17.3,94,0.00,CLR,,0.00,WeatherDisplay:10.37,2013-11-24 03:34:00,
2013-11-23 21:39:00,41.1,39.5,30.45,NNE,30,11.5,11.5,94,0.00,CLR,,0.00,WeatherDisplay:10.37,2013-11-24 03:39:00,
2013-11-23 21:44:00,41.1,39.8,30.45,North,10,13.8,13.8,95,0.00,CLR,,0.00,WeatherDisplay:10.37,2013-11-24 03:44:00,
2013-11-23 21:49:00,41.1,39.8,30.45,WNW,285,13.8,13.8,95,0.00,CLR,,0.00,WeatherDisplay:10.37,2013-11-24 03:49:00,
2013-11-23 21:54:00,41.2,39.9,30.46,North,4,10.4,10.4,95,0.00,CLR,,0.00,WeatherDisplay:10.37,2013-11-24 03:54:00,
2013-11-23 21:59:00,41.2,39.9,30.45,NNE,13,9.2,9.2,95,0.00,CLR,,0.00,WeatherDisplay:10.37,2013-11-24 03:59:00,
2013-11-23 22:04:00,41.2,39.9,30.45,NW,321,12.7,12.7,95,0.00,CLR,,0.00,WeatherDisplay:10.37,2013-11-24 04:04:00,
2013-11-23 22:09:00,41.3,40.0,30.45,North,352,11.5,11.5,95,0.00,CLR,,0.00,WeatherDisplay:10.37,2013-11-24 04:09:00,
2013-11-23 22:14:00,41.3,40.0,30.45,North,352,12.7,12.7,95,0.00,CLR,,0.00,WeatherDisplay:10.37,2013-11-24 04:14:00,
2013-11-23 22:19:00,41.4,40.1,30.44,North,4,11.5,11.5,95,0.00,CLR,,0.00,WeatherDisplay:10.37,2013-11-24 04:19:00,
2013-11-23 22:24:00,41.5,40.2,30.44,North,353,11.5,11.5,95,0.00,CLR,,0.00,WeatherDisplay:10.37,2013-11-24 04:24:00,
2013-11-23 22:29:00,41.5,40.2,30.44,NNW,336,12.7,12.7,95,0.00,CLR,,0.00,WeatherDisplay:10.37,2013-11-24 04:29:00,
2013-11-23 22:34:00,41.5,40.2,30.44,NNE,18,10.4,10.4,95,0.00,CLR,,0.00,WeatherDisplay:10.37,2013-11-24 04:34:00,
2013-11-23 22:39:00,41.5,40.2,30.44,NE,36,11.5,11.5,95,0.00,CLR,,0.00,WeatherDisplay:10.37,2013-11-24 04:39:00,
2013-11-23 22:44:00,41.5,40.2,30.44,ENE,66,12.7,12.7,95,0.00,CLR,,0.00,WeatherDisplay:10.37,2013-11-24 04:44:00,
2013-11-23 22:49:00,41.5,40.2,30.43,ENE,67,13.8,13.8,95,0.00,CLR,,0.00,WeatherDisplay:10.37,2013-11-24 04:49:00,
2013-11-23 22:54:00,41.5,40.2,30.43,NNE,33,12.7,12.7,95,0.00,CLR,,0.00,WeatherDisplay:10.37,2013-11-24 04:54:00,
2013-11-23 22:59:00,41.5,40.2,30.42,ENE,64,18.4,18.4,95,0.00,CLR,,0.00,WeatherDisplay:10.37,2013-11-24 04:59:00,
2013-11-23 23:01:00,41.5,40.2,30.42,NE,51,16.1,16.1,95,0.00,CLR,,0.00,WeatherDisplay:10.37,2013-11-24 05:01:00,
2013-11-23 23:02:00,41.5,40.2,30.42,NNE,17,12.7,12.7,95,0.00,CLR,,0.00,WeatherDisplay:10.37,2013-11-24 05:02:00,
2013-11-23 23:07:00,41.6,40.3,30.42,NE,41,12.7,12.7,95,0.00,CLR,,0.00,WeatherDisplay:10.37,2013-11-24 05:07:00,
2013-11-23 23:12:00,41.6,40.3,30.42,ENE,74,13.8,13.8,95,0.00,CLR,,0.00,WeatherDisplay:10.37,2013-11-24 05:12:00,
2013-11-23 23:17:00,41.6,40.3,30.42,NNE,18,15.0,15.0,95,0.00,CLR,,0.00,WeatherDisplay:10.37,2013-11-24 05:17:00,
2013-11-23 23:22:00,41.7,40.4,30.42,ESE,121,11.5,11.5,95,0.00,CLR,,0.00,WeatherDisplay:10.37,2013-11-24 05:22:00,
2013-11-23 23:27:00,41.8,40.2,30.42,North,351,12.7,12.7,94,0.00,CLR,,0.00,WeatherDisplay:10.37,2013-11-24 05:27:00,
2013-11-23 23:32:00,41.9,40.3,30.43,NNW,333,18.4,18.4,94,0.00,CLR,,0.00,WeatherDisplay:10.37,2013-11-24 05:32:00,
2013-11-23 23:37:00,42.1,40.2,30.43,NW,315,15.0,15.0,93,0.00,CLR,,0.00,WeatherDisplay:10.37,2013-11-24 05:37:00,
2013-11-23 23:42:00,42.2,40.3,30.43,NNE,23,12.7,12.7,93,0.00,CLR,,0.00,WeatherDisplay:10.37,2013-11-24 05:42:00,
2013-11-23 23:47:00,42.4,40.5,30.43,NE,34,12.7,12.7,93,0.00,CLR,,0.00,WeatherDisplay:10.37,2013-11-24 05:47:00,
2013-11-23 23:52:00,42.5,40.3,30.43,NE,42,11.5,11.5,92,0.00,CLR,,0.00,WeatherDisplay:10.37,2013-11-24 05:52:00,
2013-11-23 23:57:00,42.6,40.4,30.43,NNE,13,13.8,13.8,92,0.00,CLR,,0.00,WeatherDisplay:10.37,2013-11-24 05:57:00,